Date String (YYYY-MM-DD hh:mm:ss) UTC,Instrument flags,absolute air pressure of the measurement (hPa),sample flow rate (lpm),inlet stack bypass flow (lpm),air temperature of the measurement (°C),ambient temperature measured by the external sensor (°C),aerosol sample conditioner tube jacket temperature (°C),OPC LED temperature (°C),internal box temperature (°C),relative humidity of the measurement (%),span deviation,mass concentration of particles derived from Lorenz-Mie calculation of OPC scattering (μg/m³),mass concentration of particles derived from Lorenz-Mie calculation of OPC scattering (μg/m³),mass concentration of particles derived from Lorenz-Mie calculation of OPC scattering (μg/m³)
DateTimeUTC,F1_M11,P_M11,Q1_M11,Q2_M11,T1_M11,T2_M11,T3_M11,T4_M11,T5_M11,U1_M11,ZSPAN_M11,X0_M11,X2_M11,X1_M11
2024-03-05 07:00:00,SystemResetWarning,0826.6,4.99,000.00,019.7,018.9,000.0,028.3,021.5,16.1,0000.0,0011.54,0003.91,0003.26
2024-03-05 07:01:00,SystemResetWarning,0826.4,5.00,000.00,019.7,018.9,000.0,028.3,021.4,16.1,0000.0,0011.62,0003.91,0003.24
2024-03-05 07:02:00,SystemResetWarning,0826.4,5.01,000.00,019.7,018.9,000.0,028.3,021.4,15.9,0000.0,0011.67,0003.92,0003.24
2024-03-05 07:03:00,SystemResetWarning,0826.4,5.01,000.00,019.7,018.9,000.0,028.3,021.4,15.8,0000.0,0012.01,0003.94,0003.25
2024-03-05 07:04:00,SystemResetWarning,0826.5,5.00,000.00,019.6,018.9,000.0,028.3,021.4,15.7,0000.0,0012.08,0003.95,0003.26
2024-03-05 07:05:00,SystemResetWarning,0826.6,4.99,000.00,019.6,018.9,000.0,028.3,021.5,15.6,0000.0,0011.45,0003.95,0003.28
2024-03-05 07:06:00,SystemResetWarning,0826.6,4.99,000.00,019.6,018.9,000.0,028.3,021.4,15.6,0000.0,0012.37,0003.92,0003.29
2024-03-05 07:07:00,SystemResetWarning,0826.6,5.00,000.00,019.6,018.9,000.0,028.2,021.4,15.5,0000.0,0012.37,0003.95,0003.31
2024-03-05 07:08:00,SystemResetWarning,0826.6,5.01,000.00,019.6,018.8,000.0,028.2,021.4,15.5,0000.0,0011.80,0004.01,0003.34
2024-03-05 07:09:00,SystemResetWarning,0826.6,5.00,000.00,019.6,018.8,000.0,028.2,021.3,15.5,0000.0,0012.21,0004.03,0003.34
2024-03-05 07:10:00,SystemResetWarning,0826.6,5.00,000.00,019.6,018.8,000.0,028.2,021.3,15.6,0000.0,0012.70,0004.04,0003.32
2024-03-05 07:11:00,SystemResetWarning,0826.4,5.00,000.00,019.5,018.8,000.0,028.2,021.3,15.6,0000.0,0012.39,0004.01,0003.30
2024-03-05 07:12:00,SystemResetWarning,0826.4,5.00,000.00,019.5,018.7,000.0,028.2,021.3,15.6,0000.0,0012.03,0003.98,0003.26
2024-03-05 07:13:00,SystemResetWarning,0826.4,5.00,000.00,019.5,018.7,000.0,028.2,021.3,15.6,0000.0,0012.00,0003.94,0003.22
2024-03-05 07:14:00,SystemResetWarning,0826.4,4.99,000.00,019.5,018.7,000.0,028.2,021.3,15.5,0000.0,0012.12,0003.85,0003.16
2024-03-05 07:15:00,SystemResetWarning,0826.5,4.99,000.00,019.5,018.7,000.0,028.1,021.2,15.4,0000.0,0011.95,0003.82,0003.10
2024-03-05 07:16:00,SystemResetWarning,0826.6,5.00,000.00,019.5,018.7,000.0,028.1,021.3,15.3,0000.0,0011.73,0003.72,0002.97
2024-03-05 07:17:00,SystemResetWarning,0826.6,5.01,000.00,019.5,018.7,000.0,028.1,021.3,15.2,0000.0,0011.95,0003.62,0002.81
2024-03-05 07:18:00,SystemResetWarning,0826.6,5.01,000.00,019.5,018.7,000.0,028.1,021.3,15.0,0000.0,0011.78,0003.51,0002.65
2024-03-05 07:19:00,SystemResetWarning,0826.6,5.01,000.00,019.5,018.7,000.0,028.1,021.3,14.9,0000.0,0012.14,0003.40,0002.48
2024-03-05 07:20:00,SystemResetWarning,0826.8,5.00,000.00,019.5,018.7,000.0,028.1,021.2,14.9,0000.0,0011.70,0003.26,0002.32
2024-03-05 07:21:00,SystemResetWarning,0826.8,4.99,000.00,019.4,018.7,000.0,028.1,021.2,15.0,0000.0,0011.40,0003.17,0002.19
2024-03-05 07:22:00,SystemResetWarning,0826.9,5.00,000.00,019.4,018.7,000.0,028.1,021.2,14.9,0000.0,0011.88,0003.03,0002.06
2024-03-05 07:23:00,SystemResetWarning,0826.9,5.01,000.00,019.4,018.7,000.0,028.1,021.2,14.9,0000.0,0012.14,0002.86,0001.96
2024-03-05 07:24:00,SystemResetWarning,0826.9,5.01,000.00,019.4,018.7,000.0,028.1,021.2,14.8,0000.0,0011.41,0002.66,0001.86
2024-03-05 07:25:00,SystemResetWarning,0826.9,5.00,000.00,019.4,018.7,000.0,028.1,021.2,14.9,0000.0,0010.73,0002.56,0001.78
2024-03-05 07:26:00,SystemResetWarning,0826.9,5.00,000.00,019.4,018.7,000.0,028.1,021.2,14.8,0000.0,0010.62,0002.48,0001.71
2024-03-05 07:27:00,SystemResetWarning,0826.8,4.99,000.00,019.4,018.7,000.0,028.0,021.2,14.8,0000.0,0010.86,0002.41,0001.67
2024-03-05 07:28:00,SystemResetWarning,0826.8,4.99,000.00,019.4,018.7,000.0,028.0,021.2,14.8,0000.0,0009.66,0002.38,0001.61
2024-03-05 07:29:00,SystemResetWarning,0826.8,5.00,000.00,019.4,018.7,000.0,028.0,021.2,14.7,0000.0,0008.87,0002.32,0001.57
2024-03-05 07:30:00,SystemResetWarning,0826.7,5.01,000.00,019.4,018.6,000.0,028.0,021.2,14.7,0000.0,0008.40,0002.24,0001.56
2024-03-05 07:31:00,SystemResetWarning,0826.6,5.01,000.00,019.4,018.6,000.0,028.0,021.2,14.7,0000.0,0008.38,0002.23,0001.53
2024-03-05 07:32:00,SystemResetWarning,0826.6,5.00,000.00,019.4,018.6,000.0,028.0,021.2,14.6,0000.0,0007.72,0002.19,0001.51
2024-03-05 07:33:00,SystemResetWarning,0826.7,4.99,000.00,019.4,018.6,000.0,028.0,021.2,14.5,0000.0,0006.98,0002.19,0001.47
2024-03-05 07:34:00,SystemResetWarning,0826.8,5.00,000.00,019.4,018.6,000.0,028.0,021.1,14.4,0000.0,0006.47,0002.22,0001.42
2024-03-05 07:35:00,SystemResetWarning,0826.7,5.01,000.00,019.3,018.6,000.0,028.0,021.1,14.4,0000.0,0006.38,0002.19,0001.36
2024-03-05 07:36:00,SystemResetWarning,0826.7,5.01,000.00,019.3,018.6,000.0,028.0,021.1,14.3,0000.0,0006.34,0002.10,0001.30
2024-03-05 07:37:00,SystemResetWarning,0826.6,5.00,000.00,019.3,018.6,000.0,028.0,021.1,14.3,0000.0,0006.07,0002.04,0001.24
2024-03-05 07:38:00,SystemResetWarning,0826.6,5.00,000.00,019.3,018.6,000.0,028.0,021.1,14.3,0000.0,0005.15,0001.90,0001.18
2024-03-05 07:39:00,SystemResetWarning,0826.6,5.00,000.00,019.3,018.6,000.0,027.9,021.1,14.3,0000.0,0004.79,0001.81,0001.13
2024-03-05 07:40:00,SystemResetWarning,0826.6,5.00,000.00,019.3,018.5,000.0,027.9,021.1,14.3,0000.0,0004.67,0001.74,0001.08
2024-03-05 07:41:00,SystemResetWarning,0826.6,5.00,000.00,019.3,018.5,000.0,027.9,021.1,14.3,0000.0,0004.45,0001.67,0001.02
2024-03-05 07:42:00,SystemResetWarning,0826.6,5.00,000.00,019.3,018.5,000.0,027.9,021.1,14.4,0000.0,0004.49,0001.64,0000.98
2024-03-05 07:43:00,SystemResetWarning,0826.7,5.00,000.00,019.3,018.5,000.0,027.9,021.0,14.4,0000.0,0004.73,0001.62,0000.95
2024-03-05 07:44:00,SystemResetWarning,0826.6,5.00,000.00,019.2,018.4,000.0,027.9,021.0,14.5,0000.0,0004.81,0001.62,0000.93
2024-03-05 07:45:00,SystemResetWarning,0826.7,5.01,000.00,019.2,018.4,000.0,027.9,021.0,14.5,0000.0,0004.68,0001.61,0000.91
2024-03-05 07:46:00,SystemResetWarning,0826.6,5.01,000.00,019.2,018.4,000.0,027.8,020.9,14.5,0000.0,0004.49,0001.53,0000.90
2024-03-05 07:47:00,SystemResetWarning,0826.8,4.99,000.00,019.2,018.4,000.0,027.8,020.9,14.5,0000.0,0004.51,0001.50,0000.88
2024-03-05 07:48:00,SystemResetWarning,0826.8,4.99,000.00,019.2,018.4,000.0,027.8,020.9,14.5,0000.0,0004.43,0001.45,0000.85
2024-03-05 07:49:00,SystemResetWarning,0826.8,5.00,000.00,019.2,018.4,000.0,027.8,020.9,14.5,0000.0,0004.36,0001.41,0000.82
2024-03-05 07:50:00,SystemResetWarning,0826.9,5.00,000.00,019.1,018.3,000.0,027.8,020.9,14.3,0000.0,0004.32,0001.37,0000.78
2024-03-05 07:51:00,SystemResetWarning,0826.9,5.01,000.00,019.1,018.3,000.0,027.8,020.9,14.3,0000.0,0004.31,0001.35,0000.75
2024-03-05 07:52:00,SystemResetWarning,0826.9,5.00,000.00,019.1,018.3,000.0,027.8,020.9,14.4,0000.0,0004.25,0001.37,0000.73
2024-03-05 07:53:00,SystemResetWarning,0826.9,5.00,000.00,019.1,018.3,000.0,027.8,020.9,14.5,0000.0,0004.29,0001.33,0000.69
2024-03-05 07:54:00,SystemResetWarning,0826.9,5.00,000.00,019.1,018.3,000.0,027.7,020.8,14.6,0000.0,0003.66,0001.28,0000.65
2024-03-05 07:55:00,SystemResetWarning,0826.9,5.00,000.00,019.1,018.3,000.0,027.7,020.8,14.6,0000.0,0003.85,0001.25,0000.62
2024-03-05 07:56:00,SystemResetWarning,0827.0,5.00,000.00,019.1,018.3,000.0,027.7,020.8,14.7,0000.0,0004.76,0001.19,0000.59
2024-03-05 07:57:00,SystemResetWarning,0827.0,5.00,000.00,019.0,018.2,000.0,027.7,020.8,14.7,0000.0,0004.85,0001.15,0000.57
2024-03-05 07:58:00,SystemResetWarning,0827.0,5.00,000.00,019.0,018.2,000.0,027.7,020.7,14.8,0000.0,0004.66,0001.10,0000.56
2024-03-05 07:59:00,SystemResetWarning,0827.1,5.00,000.00,019.0,018.2,000.0,027.7,020.7,14.9,0000.0,0004.71,0001.10,0000.56
